FW2888 Weather Reports


time (UTC)temp
F
wind
direction
speed
knots
gust
knots
rain 1hr
in
rain 24hr
in
rain mn
in
humidity
%
barometer
mb
20260504174639 78 17 1.7 5.2 0.00 0.00 0.00 30 1005.4
20260504173634 76 308 2.6 6.1 0.00 0.00 0.00 34 1005.5
20260504173135 76 103 2.6 6.1 0.00 0.00 0.00 31 1005.7
20260504171634 75 274 1.7 7.0 0.00 0.00 0.00 31 1005.8
20260504170634 75 233 1.7 6.1 0.00 0.00 0.00 33 1005.9
20260504170135 76 293 1.7 6.1 0.00 0.00 0.00 34 1005.8
20260504151118 71 321 1.7 4.3 0.00 0.00 0.00 39 1007.0
20260504150618 70 172 1.7 4.3 0.00 0.00 0.00 38 1007.0
20260504150115 70 353 1.7 4.3 0.00 0.00 0.00 39 1007.0
20260504141109 66 179 0.9 2.6 0.00 0.00 0.00 46 1007.2
20260504140103 65 347 0.9 3.5 0.00 0.00 0.00 46 1007.2
20260504130602 60 327 0.9 5.2 0.00 0.00 0.00 51 1007.9
20260504110547 47 160 0.0 0.9 0.00 0.00 0.00 69 1008.2
20260504082005 49 205 0.0 0.0 0.00 0.00 0.00 63 1008.6
20260504081505 49 205 0.0 0.0 0.00 0.00 0.00 63 1008.5
20260504081001 49 205 0.0 0.0 0.00 0.00 0.00 64 1008.5
20260504080501 49 205 0.0 0.0 0.00 0.00 0.00 63 1008.5
20260504050439 49 20 0.0 0.0 0.00 0.00 0.00 62 1008.6
20260504045935 49 20 0.0 0.0 0.00 0.00 0.00 63 1008.5
20260504044934 49 20 0.0 0.0 0.00 0.00 0.00 68 1008.5
20260504044431 49 20 0.0 0.0 0.00 0.00 0.00 69 1008.3
20260504043930 49 20 0.0 0.0 0.00 0.00 0.00 65 1008.3
20260504042929 49 20 0.0 0.0 0.00 0.00 0.00 63 1008.3
20260504042428 48 20 0.0 0.0 0.00 0.00 0.00 65 1008.2
20260504041926 48 20 0.0 0.0 0.00 0.00 0.00 67 1008.2
20260504041427 48 20 0.0 0.0 0.00 0.00 0.00 63 1008.3
20260504040418 48 20 0.0 0.0 0.00 0.00 0.00 68 1008.4
20260504035917 48 20 0.0 0.0 0.00 0.00 0.00 64 1008.4
20260504035418 48 20 0.0 0.0 0.00 0.00 0.00 67 1008.4
20260504034412 47 20 0.0 0.0 0.00 0.00 0.00 67 1008.4
20260504033911 47 20 0.0 0.0 0.00 0.00 0.00 66 1008.4
20260504033409 47 20 0.0 0.0 0.00 0.00 0.00 64 1008.4
20260504032404 47 20 0.0 0.0 0.00 0.00 0.00 64 1008.3
20260504031903 47 20 0.0 0.0 0.00 0.00 0.00 65 1008.4
20260504031400 47 20 0.0 0.0 0.00 0.00 0.00 66 1008.4
20260504030356 47 20 0.0 0.0 0.00 0.00 0.00 62 1008.4
20260504025350 47 20 0.0 0.0 0.00 0.00 0.00 61 1008.4
20260504024350 47 20 0.0 0.0 0.00 0.00 0.00 65 1008.3
20260504023849 47 20 0.0 0.0 0.00 0.00 0.00 66 1008.4
20260504023351 48 20 0.0 0.0 0.00 0.00 0.00 65 1008.3
20260504022849 47 20 0.0 0.0 0.00 0.00 0.00 63 1008.4
20260504022347 47 20 0.0 0.0 0.00 0.00 0.00 66 1008.5
20260504021849 47 20 0.0 0.0 0.00 0.00 0.00 66 1008.4
20260504021347 47 20 0.0 0.0 0.00 0.00 0.00 65 1008.3
20260504020847 48 20 0.0 0.0 0.00 0.00 0.00 63 1008.4
20260504020349 48 20 0.0 0.0 0.00 0.00 0.00 64 1008.3
20260504015346 48 20 0.0 0.0 0.00 0.00 0.00 65 1008.2
20260504014846 48 20 0.0 0.0 0.00 0.00 0.00 65 1008.3
20260504014345 48 20 0.0 0.0 0.00 0.00 0.00 64 1008.3
20260504013347 48 20 0.0 0.0 0.00 0.00 0.00 61 1008.2
20260504012848 48 20 0.0 0.0 0.00 0.00 0.00 62 1008.2
20260504011841 48 20 0.0 0.0 0.00 0.00 0.00 63 1008.0
20260504010841 49 20 0.0 0.0 0.00 0.00 0.00 61 1007.9
20260504010341 49 20 0.0 0.0 0.00 0.00 0.00 62 1008.0
20260504005840 49 20 0.0 0.0 0.00 0.00 0.00 61 1007.9
20260504004840 50 20 0.0 0.0 0.00 0.00 0.00 59 1007.8
20260504004341 50 20 0.0 0.0 0.00 0.00 0.00 59 1007.9
20260504003839 50 20 0.0 0.0 0.00 0.00 0.00 58 1007.8
20260504003338 51 20 0.0 0.0 0.00 0.00 0.00 56 1007.8
20260504002838 51 20 0.0 0.0 0.00 0.00 0.00 55 1007.7
20260504002337 52 20 0.0 0.0 0.00 0.00 0.00 55 1007.7
20260504001837 52 20 0.0 0.0 0.00 0.00 0.00 54 1007.8
20260504001336 53 20 0.0 0.9 0.00 0.00 0.00 52 1007.7
20260504000838 53 20 0.0 0.9 0.00 0.00 0.00 51 1007.7
20260504000334 54 20 0.0 0.0 0.00 0.00 0.00 49 1007.6
20260503235832 55 20 0.0 0.0 0.00 0.00 0.00 48 1007.6
20260503234832 56 20 0.0 0.0 0.00 0.00 0.00 44 1007.5
20260503234329 57 20 0.0 0.0 0.00 0.00 0.00 43 1007.4
20260503233827 58 17 0.0 0.0 0.00 0.00 0.00 42 1007.4
20260503233328 58 17 0.0 0.9 0.00 0.00 0.00 43 1007.4
20260503232827 59 17 0.0 0.9 0.00 0.00 0.00 40 1007.4
20260503232328 60 20 0.0 1.7 0.00 0.00 0.00 38 1007.4
20260503231828 61 10 0.0 3.5 0.00 0.00 0.00 32 1007.3
20260503231327 62 220 0.9 3.5 0.00 0.00 0.00 34 1007.3
20260503230827 62 259 0.9 2.6 0.00 0.00 0.00 32 1007.2
20260503230326 62 228 0.0 2.6 0.00 0.00 0.00 32 1007.2
20260503225829 62 293 0.9 3.5 0.00 0.00 0.00 31 1007.2
20260503224328 62 143 0.9 4.3 0.00 0.00 0.00 32 1007.3
20260503223826 63 38 0.9 4.3 0.00 0.00 0.00 29 1007.3
20260503223325 63 345 0.9 3.5 0.00 0.00 0.00 30 1007.4
20260503222825 63 290 1.7 7.8 0.00 0.00 0.00 31 1007.5
20260503222324 63 284 1.7 7.8 0.00 0.00 0.00 30 1007.3
20260503221323 63 295 1.7 8.7 0.00 0.00 0.00 31 1007.4
20260503220320 63 339 0.9 5.2 0.00 0.00 0.00 30 1007.3
20260503215820 62 120 0.9 3.5 0.00 0.00 0.00 32 1007.3
20260503214319 63 353 0.9 3.5 0.00 0.00 0.00 30 1007.4
20260503213819 63 195 1.7 3.5 0.00 0.00 0.00 31 1007.5
20260503212318 64 297 1.7 7.0 0.00 0.00 0.00 30 1007.4
20260503211816 64 124 1.7 7.0 0.00 0.00 0.00 30 1007.4
20260503211317 64 252 1.7 4.3 0.00 0.00 0.00 31 1007.4
20260503210817 64 324 1.7 4.3 0.00 0.00 0.00 31 1007.4
20260503210313 64 294 2.6 7.8 0.00 0.00 0.00 33 1007.4
20260503205812 64 272 2.6 7.8 0.00 0.00 0.00 31 1007.5
20260503205311 64 237 2.6 7.0 0.00 0.00 0.00 30 1007.4
20260503204811 63 0 2.6 7.0 0.00 0.00 0.00 30 1007.4
20260503204303 64 294 2.6 7.0 0.00 0.00 0.00 30 1007.5
20260503203804 64 325 1.7 7.0 0.00 0.00 0.00 29 1007.5
20260503203306 64 337 1.7 7.0 0.00 0.00 0.00 30 1007.5
20260503202805 64 342 2.6 7.8 0.00 0.00 0.00 29 1007.5
20260503202304 65 334 1.7 7.8 0.00 0.00 0.00 30 1007.6
20260503201804 65 222 1.7 6.1 0.00 0.00 0.00 32 1007.7
20260503201305 64 328 1.7 6.1 0.00 0.00 0.00 30 1007.7
20260503200805 63 313 1.7 6.1 0.00 0.00 0.00 29 1007.7
20260503200305 64 229 1.7 6.1 0.00 0.00 0.00 30 1007.9
20260503195800 64 33 1.7 8.7 0.00 0.00 0.00 29 1008.0
20260503195300 64 255 2.6 8.7 0.00 0.00 0.00 30 1008.2
20260503194759 64 293 2.6 10.4 0.00 0.00 0.00 31 1008.4
20260503194259 63 43 2.6 10.4 0.00 0.00 0.00 31 1008.4
20260503193757 63 301 2.6 8.7 0.00 0.00 0.00 32 1008.4
20260503193258 63 180 2.6 9.6 0.00 0.00 0.00 29 1008.6
20260503192758 64 341 2.6 9.6 0.00 0.00 0.00 33 1008.7
20260503192258 64 294 1.7 7.0 0.00 0.00 0.00 33 1008.6
20260503191759 63 355 1.7 7.0 0.00 0.00 0.00 33 1008.8
20260503191254 64 286 1.7 4.3 0.00 0.00 0.00 33 1008.8
20260503190251 63 118 2.6 8.7 0.00 0.00 0.00 31 1008.9
20260503185751 64 207 2.6 8.7 0.00 0.00 0.00 31 1009.0
20260503185251 64 226 1.7 5.2 0.00 0.00 0.00 34 1009.0
20260503184752 64 275 1.7 5.2 0.00 0.00 0.00 30 1009.1
20260503184251 63 5 2.6 11.3 0.00 0.00 0.00 33 1009.2
20260503183752 62 10 3.5 11.3 0.00 0.00 0.00 32 1009.4
20260503182251 62 5 1.7 7.0 0.00 0.00 0.00 33 1009.2
20260503181750 62 335 1.7 4.3 0.00 0.00 0.00 34 1009.4
20260503181251 60 326 1.7 8.7 0.00 0.00 0.00 36 1009.5
20260503180750 61 27 2.6 8.7 0.00 0.00 0.00 33 1009.5
20260503180251 62 351 1.7 4.3 0.00 0.00 0.00 33 1009.4
20260503175751 62 318 1.7 6.1 0.00 0.00 0.00 33 1009.4
20260503175251 62 10 2.6 7.0 0.00 0.00 0.00 33 1009.4